Location: Arbon
(43.0005°N, 0.7472°E)
Time: 11:59:58
(UTC+00:00)

Cosmos 1908 Rocket - Pass Details

Date: 22 April 2026
Orbit: 599 x 625 km, 82.5° (Epoch: 16 May)

Event Time Altitude Azimuth Distance (km) Brightness Sun altitude
Exits shadow 20:45:40 15° 199° (SSW) 1,644 5.5 -19.6°
Maximum altitude 20:49:11 66° 280° (W) 665 3.8 -20.1°
Drops below altitude 10° 20:53:29 10° 2° (N) 1,954 6.6 -20.7°
Sets 20:55:43 0° 6° (N) 2,860 7.5 -21.0°
